Weather Roundup
Issued by NWS

Home | Current Version | Previous Version | Graphics & Text | Print | Product List | Glossary Off
Versions: 1 2 3 4 5 6 7 8 9 10 11 12 13 14 15 16 17 18 19 20 21 22 23 24 25 26 27 28 29 30 31 32 33 34 35 36 37 38 39 40 41 42 43 44 45 46 47 48 49 50

000
NZUS93 KARX 300810
HRRWXR

CURRENT HOURLY OBSERVATIONS ACROSS
MUCH OF THE UPPER MISSISSIPPI VALLEY
NATIONAL WEATHER SERVICE LA CROSSE WI
200 AM CST FRI JAN 30 2015


...SOUTHEAST MINNESOTA...


CITY           SKY/WX    TMP DP  RH WIND       PRES   REMARKS
ROCHESTER      CLEAR     12   4  70 N13       30.50R WCI  -3
ROCHESTER/MAYO FAIR      13   5  70 NW8       30.51S WCI   2
WINONA         CLEAR     16   9  73 NW8       30.55R WCI   5
AUSTIN         CLEAR     14   9  79 N6        30.51R WCI   5
ALBERT LEA     CLEAR     16  10  79 NW8       30.52R WCI   5
DODGE CENTER   PTCLDY    12   7  79 N7        30.50R WCI   2
PRESTON        CLEAR     12   6  76 N12       30.48S WCI  -2
OWATONNA       CLEAR     14   9  79 NW7       30.53R WCI   4
FARIBAULT      CLEAR     12   9  85 NW6       30.54S WCI   3
$$

...ELSEWHERE IN MINNESOTA...


CITY           SKY/WX    TMP DP  RH WIND       PRES   REMARKS
MINNEAPOLIS    PTCLDY    14   6  70 NW9       30.55F WCI   2
INTNL FALLS    MOCLDY   -15 -18  86 CALM      30.48F
DULUTH         PTCLDY     1  -4  79 W7        30.46R WCI -12
RED WING       PTCLDY    12   3  67 N3        30.55S
REDWOOD FALLS  CLEAR     14   8  77 N6        30.55S WCI   5
MANKATO        CLEAR     14   7  73 N10       30.54S WCI   1
WORTHINGTON    CLOUDY    18  10  73 N7        30.51F WCI   8
FAIRMONT       CLEAR     14   9  79 N9        30.53S WCI   2
$$

...SOUTHWEST WISCONSIN...


CITY           SKY/WX    TMP DP  RH WIND       PRES   REMARKS
LA CROSSE      CLEAR     16   7  67 NW9       30.52R WCI   4
PRAIRIE DU CHI MOCLDY    21  10  61 NW6       30.49R WCI  13
BOSCOBEL       CLOUDY    22   9  57 NW9       30.48R WCI  12
LONE ROCK      PTCLDY    21   8  57 N7        30.46R WCI  12
PLATTEVILLE    CLEAR     20  11  67 NW10      30.44R WCI   9
FORT MC COY    PTCLDY    15   7  70 NW7       30.49R WCI   5
CAMP DOUGLAS   MOCLDY    16   8  71 NW8       30.45S WCI   5
VIROQUA        FAIR      15   8  75 NW10      30.44R WCI   2
WIS DELLS      CLEAR     18   7  62 NW8       30.43R WCI   7
$$

...ELSEWHERE IN WISCONSIN...


CITY           SKY/WX    TMP DP  RH WIND       PRES   REMARKS
MILWAUKEE      MOCLDY    25  11  55 NW16      30.38R WCI  12
MADISON        CLEAR     20   9  62 NW8       30.42R WCI  10
GREEN BAY      MOCLDY    18   8  65 NW6       30.41R WCI  10
EAU CLAIRE     PTCLDY     9   0  67 NW7       30.52R WCI  -2
BLACK RVR FLS  CLOUDY    15   5  65 NW5       30.49R WCI   7
MEDFORD        CLOUDY    13   5  70 NW10      30.41R WCI   0
WAUSAU         CLOUDY    16   4  59 NW10      30.40R WCI   4
WIS RAPIDS     CLOUDY    18   6  59 N7        30.44R WCI   9
MARSHFIELD     CLOUDY    14   4  64 NW10      30.42R WCI   1
RICE LAKE      PTCLDY     5   0  79 W5        30.53R WCI  -4
$$

...NORTHEAST IOWA...


CITY           SKY/WX    TMP DP  RH WIND       PRES   REMARKS
DECORAH        CLEAR     14   9  79 N12       30.48R WCI   0
MASON CITY     CLEAR     15  11  83 NW13      30.54R WCI   1
CHARLES CITY   CLEAR     18  10  73 N12G18    30.51R WCI   5
OELWEIN        CLEAR     18  10  73 N15       30.49R WCI   3
$$

...ELSEWHERE IN IOWA...


CITY           SKY/WX    TMP DP  RH WIND       PRES   REMARKS
DES MOINES     PTCLDY    22  15  75 N13       30.54R WCI  10
IOWA CITY      CLEAR     23  15  71 NW8       30.52R WCI  14
FORT DODGE     CLEAR     18  10  73 N8        30.54S WCI   7
$$

...NORTHERN ILLINOIS...


CITY           SKY/WX    TMP DP  RH WIND       PRES   REMARKS
CHICAGO-OHARE  CLOUDY    26  12  55 N12       30.37R WCI  16
CHICAGO-MIDWAY CLOUDY    30  15  53 N16       30.37R WCI  19
MOLINE         CLEAR     24  16  71 NW12      30.47R WCI  13
ROCKFORD       CLOUDY    27  13  55 N13       30.42R WCI  16
PEORIA         CLEAR     29  18  63 NW8       30.44R WCI  21
$$

NOTE: "FAIR" INDICATES FEW OR NO CLOUDS BELOW 12,000 FEET WITH NO
SIGNIFICANT WEATHER AND/OR OBSTRUCTIONS TO VISIBILITY. WIND
SPEEDS ARE IN MILES-PER-HOUR.



USA.gov is the U.S. government's official web portal to all federal, state and local government web resources and services.